Location: Hains Lake
(37.8540°N, 99.8578°W)
Time: 21:53:37
(UTC+00:00)

Vanguard 2 Rocket - Pass Details

Date: 19 April 2021
Orbit: 553 x 3326 km, 32.9° (Epoch: 05 May)

Event Time Altitude Azimuth Distance (km) Brightness Sun altitude
Rises 17:21:19 0° 199° (SSW) 5,701 11.2 58.4°
Reaches altitude 10° 17:25:27 10° 189° (S) 5,079 11.2 58.9°
Maximum altitude 17:38:07 29° 136° (SE) 4,516 11.6 60.3°
Drops below altitude 10° 17:53:34 10° 86° (E) 6,286 11.4 61.7°
Sets 17:59:24 0° 77° (ENE) 7,238 11.5 62.2°
